www.pogodaiklimat.ru

Погода и климат >> Архив погоды >> Россия >> Камчатский край >> Большерецк


ПОГОДА в Большерецке

  • Прогноз погоды в Большерецке
  • Монитор погоды в Большерецке

АРХИВ ПОГОДЫ в Большерецке

Время (UTC), дата Ветер
(напр.,м/с)
 
Видим.   Явления Облачность Т
(С)
Тd
(С)
f
(%)
Тe
(С)
Тes
(С)
Комфортность P
(гПа)
Po
(гПа)
Тmin
(С)
Tmax
(С)
R
(мм)
R24
(мм)
S
(см)
03 19.04 Ю 4
{10}
50 км 4/0
[Ci fib]
+4.0 -1.7 66 -0 +7 1025.1 1021.3
06 19.04 Ю 4 50 км 4/0
[Ci fib]
+3.7 -1.8 67 -1 +2 1025.1 1021.3
09 19.04 ЮЗ 2 50 км 4/0
[Ci fib]
+0.6 -2.8 78 -3 -3 1025.9 1022.0 +4.7
12 19.04 Ю 4 20 км 6/0
[Ci fib]
-0.2 -3.7 77 -6 -6 1026.3 1022.5
15 19.04 ЮВ 3 20 км 8/0
[Ci fib]
-0.5 -3.9 78 -5 -5 1026.6 1022.7
18 19.04 СВ 1 50 км 4/0
[Ci fib]
-3.7 -5.2 89 -6 -6 1027.0 1023.1
21 19.04 В 2 50 км 3/3 600 м
[Sc]
+0.4 -3.5 75 -3 -1 1028.0 1024.2 -4.3 1
00 20.04 ЮВ 5 50 км 3/3 600 м
[Sc]
+3.3 -3.5 61 -1 +3 1027.7 1023.9
03 20.04 Ю 3 50 км 5/5 600 м
[Sc]
+4.4 -3.4 57 +1 +6 1027.5 1023.8
06 20.04 СЗ 3 50 км 4/3 600 м
[Sc Ci fib]
+3.2 -2.3 67 -0 +2 1027.4 1023.6
09 20.04 С 2 50 км 10/10 600 м
[Sc]
+0.4 -1.6 86 -3 -3 1027.8 1024.0 +4.7
12 20.04 В 2 20 км 10/10 600 м
[Sc]
+0.4 -2.8 79 -3 -3 1027.5 1023.7
15 20.04 ЮВ 1 20 км 10/10 600 м
[Sc]
+0.6 -3.4 75 -1 -1 1027.3 1023.4
18 20.04 Ю 3 20 км 10/10 600 м
[Sc]
+0.8 -4.8 66 -3 -3 1026.6 1022.7
21 20.04 ЮВ 2 50 км 10/10 600 м
[Sc]
+1.3 -4.3 66 -2 -2 1026.5 1022.7 +0.2 0
00 21.04 ЮВ 2 50 км 10/10 600 м
[Sc]
+2.6 -5.2 56 0 0 1026.0 1022.2
03 21.04 ЮВ 3 50 км 10/10 600 м
[Sc]
+3.3 -5.2 54 0 0 1024.8 1021.0
06 21.04 ЮВ 3 50 км 10/10 600 м
[Sc]
+3.2 -4.7 56 -0 -0 1024.3 1020.5
09 21.04 ЮВ 2 50 км 10/10 600 м
[Sc]
+2.2 -4.0 64 -1 -1 1024.4 1020.6 +3.5
12 21.04 В 1 20 км 10/10 600 м
[Sc]
+1.2 -3.6 70 -0 -0 1024.3 1020.5
15 21.04 Ю 1 20 км 10/10 600 м
[Sc]
+1.0 -2.7 76 -1 -1 1024.1 1020.3
18 21.04 В 3 50 км 10/8 600 м
[Sc Ac und]
+1.2 -3.1 73 -3 -3 1022.5 1018.7
21 21.04 В 2 50 км 10/10 600 м
[Sc]
+2.0 -3.0 69 -1 -1 1022.2 1018.4 +0.7 0
00 22.04 ЮВ 5 50 км 10/10 600 м
[Sc]
+4.3 -3.2 58 -0 -0 1021.5 1017.8
03 22.04 Ю 3 20 км 10/10 600 м
[Sc]
+3.2 -0.8 75 -1 -1 1021.2 1017.4
06 22.04 Ю 4 20 км 10/10 600 м
[Sc]
+2.8 -0.9 77 -2 -2 1020.6 1016.8
09 22.04 Ю 2 20 км 10/10 600 м
[Sc]
+1.6 -0.8 84 -2 -2 1020.4 1016.6 +4.9
12 22.04 Ю 3 20 км 10/10 600 м
[Sc]
+1.6 -1.0 83 -3 -3 1019.8 1016.0
15 22.04 Ю 4 20 км 10/10 600 м
[Sc]
+0.9 -1.8 82 -4 -4 1019.0 1015.2
18 22.04 ЮВ 4 50 км 10/8 600 м
[Sc Ac und]
+0.8 -2.9 76 -4 -4 1018.2 1014.4
21 22.04 ЮВ 5 50 км 10/10 600 м
[Sc]
+1.4 -2.6 75 -4 -4 1017.9 1014.1 +0.7 0
00 23.04 ЮВ 6-10
{11}
50 км 10/5 600 м
[Sc Ci fib]
+4.0 -2.9 61 -1 +1 1017.0 1013.3
03 23.04 ЮВ 5-10
{12}
50 км 10/8 600 м
[Sc Ac und]
+4.4 -2.4 61 0 0 1016.2 1012.5
06 23.04 ЮВ 3
{10}
20 км слаб. ливневой дождь 10/10 600 м
[Cb cap]
+2.4 +0.7 89 -2 -2 1015.5 1011.7
09 23.04 ЮВ 2 50 км в посл. час ливневой дождь 10/10 600 м
[Cb cap]
+1.4 +0.6 94 -2 -2 1015.8 1012.0 +5.0 0.6
12 23.04 Ю 2 10 км слаб. морось 10/10 300 м
[St]
+0.4 +0.4 100 -3 -3 1016.3 1012.5
15 23.04 ЮВ 1 20 км в посл. час морось 10/10 300 м
[St]
+0.1 +0.1 100 -2 -2 1016.2 1012.4
18 23.04 В 1 10 км слаб. ливневой снег {морось} 10/10 300 м
[Cb cap]
+0.2 +0.2 100 -2 -2 1016.6 1012.8
21 23.04 Ю 2 50 км в посл. час ливневой снег 9/9 600 м
[Cb cap]
+1.2 +0.8 97 -2 -2 1016.8 1013.0 -0.1 0.2 0
00 24.04 Ю 2 50 км {ливн. осадки} 9/9 600 м
[Cb cap]
+3.2 +0.4 82 0 +1 1016.9 1013.1
03 24.04 СЗ 4 50 км 9/9 600 м
[Sc]
+3.0 +0.7 85 -2 -1 1016.4 1012.6
06 24.04 С 3 50 км 9/9 600 м
[Sc]
+1.9 -0.4 85 -2 -2 1016.1 1012.3
09 24.04 СЗ 1 50 км 9/9 600 м
[Sc]
+0.3 -0.7 93 -2 -2 1016.2 1012.4 +3.9
12 24.04 В 1 20 км 9/9 600 м
[Sc]
0.0 -0.2 99 -2 -2 1015.7 1011.9
15 24.04 В 1 20 км 10/10 600 м
[Sc]
-0.1 -0.1 100 -2 -2 1014.8 1011.0
18 24.04 ЮВ 2 50 км 10/10 600 м
[Sc]
+1.1 -1.0 86 -2 -2 1013.1 1009.4
21 24.04 ЮВ 3 50 км 10/10 600 м
[Sc]
+2.1 -1.4 78 -2 -2 1011.1 1007.4 -0.1 0
00 25.04 В 5 4000 м слаб. ливневой снег 10/10 600 м
[Cb cap]
+0.8 +0.7 99 -5 -5 1009.3 1005.5
03 25.04 В 5 4000 м слаб. ливневой снег 10/10 600 м
[Cb cap]
+0.3 +0.3 100 -6 -6 1005.5 1001.7
06 25.04 В 6-10
{11}
4000 м слаб. ливневой снег 10/10 600 м
[Cb cap]
+0.5 +0.5 100 -6 -6 1001.1 997.4
09 25.04 В 7-12
{12}
4000 м слаб. ливневой снег 10/10 600 м
[Cb cap]
+0.5 +0.5 100 -7 -7 996.2 992.5 +2.5 14
12 25.04 В 4
{12}
4000 м слаб. ливневой снег 10/10 600 м
[Cb cap]
+0.1 +0.1 100 -6 -6 993.0 989.3
15 25.04 С 3 4000 м слаб. ливневой снег 10/10 600 м
[Cb cap]
-0.0 -0.0 100 -5 -5 991.2 987.5
18 25.04 СЗ 4 4000 м слаб. ливневой снег 10/10 600 м
[Cb cap]
0.0 0.0 100 -6 -6 992.7 989.0
21 25.04 СЗ 7-13
{13}
20 км в посл. час ливневой снег 10/10 600 м
[Cb cap]
-0.1 -0.1 100 -8 -8 996.8 993.0 -0.1 10 11
00 26.04 З 8-12
{14}
20 км {ливн. осадки} 10/10 600 м
[Cb cap]
+0.5 -0.2 95 -7 -7 1000.5 996.7 -0.2

 

Местоположение метеостанции Большерецк (Камчатский край, Россия): широта 52.83 долгота 156.30 высота над уровнем моря 30 м.

В архиве по умолчанию представлена погода в Большерецке за последнюю неделю. Архивные данные за месяц целиком и за предыдущие месяцы, начиная с января 2011 года, Вы можете получить, выбрав интересующий диапазон дат из раскрывающегося списка и нажав кнопку "Ввод!".


*Определитесь, кто Вы:
робот инопланетянин человек

Внимание! Время в таблицах - всемирное. Для получения местного времени необходимо прибавить поправку, которая равна 12 ч.

Смотрите также архив погоды в соседних городах и на ближайших метеорологических станциях:

Погода в Начиках (Камчатский край, Россия) (99 км)
Погода в Сосновке (Камчатский край, Россия) (137 км)
Погода в Петропавловск-Камч. 2 (Камчатский край, Россия) (150 км)
Погода в Озерной (Камчатский край, Россия) (150 км)
Погода в Петропавловск-Камчатском (Камчатский край, Россия) (155 км)
Погода в Водопадной (Камчатский край, Россия) (161 км)
Погода в Петропавловском Маяке (Камчатский край, Россия) (161 км)
Погода в Соболево (Камчатский край, Россия) (166 км)
Погода в Пущино (Камчатский край, Россия) (188 км)
Погода на Мысе Лопатка (Камчатский край, Россия) (219 км)

Пояснения к столбцам:

Ветер - указаны скорость ветра в м/с - средняя за 10 мин, порывы в срок и между сроками (в фигурных скобках) и направление, откуда дует ветер: С - северный, СВ - северо-восточный, В - восточный, ЮВ - юго-восточный, Ю - южный, ЮЗ - юго-западный, З - западный, СЗ - северо-западный.
Видимость - горизонтальная дальность видимости в метрах или километрах. При видимости от 1 до 10 км при отсутствии осадков обычно наблюдается дымка, при ухудшении видимости до 1 км и менее - туман. В сухую погоду видимость может ухудшаться дымом, пылью или мглою.
Явления - указаны атмосферные явления, наблюдавшиеся в срок или в последний час перед сроком; фигурными скобками обозначены явления, наблюдавшиеся между сроками (за 1-3 часа до срока); квадратными скобками обозначены град или гололедные отложения с указанием их диаметра в мм.
Облачность - указаны через наклонную черту общая и нижняя облачность в баллах и высота нижней границы облаков в метрах; квадратными скобками обозначены формы облаков: Ci - перистые, Cs - перисто-слоистые, Cc - перисто-кучевые, Ac - высококучевые, As - высокослоистые, Sc - слоисто-кучевые, Ns - слоисто-дождевые, Cu - кучевые, Cb - кучево-дождевые. Подробнее классификацию облаков см. в Атласе облаков (PDF).
T - Температура воздуха - температура, измеренная на высоте 2 м над землей.
Td - Температура точки росы - температура, при понижении до которой содержащийся в воздухе водяной пар достигнет насыщения.
f - Относительная влажность воздуха - влажноcть воздуха, измеренная на высоте 2 м над землей.
Te - Эффективная температура - температура, которую ощущает одетый по сезону человек в тени. Характеристика душности погоды. При расчете учитывается влияние влажности воздуха и скорости ветра на теплоощущения человека.
Tes - Эффективная температура на солнце - температура, которую ощущает человек, с поправкой на солнечный нагрев. Характеристика знойности погоды. Зависит от высоты солнца над горизонтом, облачности и скорости ветра. Ночью, в пасмурную погоду, а также при ветре 12 м/с и более поправка равна нулю.
P - Атмосферное давление - приведенное к уровню моря атмосферное давление.
Po - Атмосферное давление - измеренное на уровне метеостанции атмосферное давление.
Tmin - Минимальная температура - минимум температуры воздуха на высоте 2 м над землей.
Tmax - Максимальная температура - максимум температуры воздуха на высоте 2 м над землей.
R - Количество осадков - Количество выпавших осадков за период времени, мм. При наведении курсора мыши на число - период времени, за который выпало указанное количество осадков.
R24 - Количество осадков - Количество выпавших осадков за 24 часа, мм.
S - Снежный покров - Высота снежного покрова, см. При наведении курсора мыши на число - состояние снежного покрова и степень покрытия местности в баллах.